Regional Weather Roundup
Issued by NWS

Home | Current Version | Previous Version | Text Only | Print | Product List | Glossary On
Versions: 1 2 3 4 5 6 7 8 9 10 11 12 13 14 15 16 17 18 19 20 21 22 23 24 25 26 27 28 29 30 31 32 33 34 35 36 37 38 39 40 41 42 43 44 45 46 47 48 49 50
000
ASUS43 KMKX 280921
RWRWI

WISCONSIN REGIONAL WEATHER ROUNDUP
NATIONAL WEATHER SERVICE MILWAUKEE/SULLIVAN WI
300 AM CST SUN DEC 28 2014

NOTE: "FAIR" INDICATES FEW OR NO CLOUDS BELOW 12,000 FEET WITH NO
SIGNIFICANT WEATHER AND/OR OBSTRUCTIONS TO VISIBILITY.

WIZ001-002-006>008-014>016-023>028-281000-
NORTHWEST WISCONSIN

CITY           SKY/WX    TMP DP  RH WIND       PRES   REMARKS
SUPERIOR ARPT  CLOUDY    20  15  78 SW6       30.05R WCI  13
ASHLAND        CLOUDY    18  11  74 SW8       30.03R WCI   8
HAYWARD        CLOUDY    14  10  84 SW5       30.03R WCI   6
SIREN          MOCLDY    13  10  86 CALM      30.06S
CUMBERLAND     CLOUDY    12   9  85 SW3       30.05S
RICE LAKE      CLOUDY    12   9  86 CALM      30.08S
CHETEK         CLOUDY    12   8  87 CALM      30.07R
LADYSMITH      CLOUDY    11   9  89 SW6       30.05F WCI   2
EAU CLAIRE     CLOUDY    11   6  81 SW7       30.09R WCI   0
MENOMONIE      CLOUDY    13   8  82 SW3       30.09S
NEW RICHMOND   CLOUDY    12   9  85 SW5       30.09R WCI   5
OSCEOLA        CLOUDY    13  10  87 CALM      30.12R
$$

WIZ003>005-009-010-017-018-281000-
NORTH CENTRAL WISCONSIN

CITY           SKY/WX    TMP DP  RH WIND       PRES   REMARKS
MANITOWISH WTR CLOUDY    10   8  90 SW3       29.97S
ARBOR VITAE    PTCLDY    13  10  87 W3        29.98S
WOODRUFF       PTCLDY    13  10  87 W3        29.98S
RHINELANDER    CLEAR      5   3  91 SW5       29.98S WCI  -4
EAGLE RIVER    CLEAR      9   6  87 W6        29.96F WCI  -1
LAND O LAKES   MOCLDY    12  10  89 W3        29.96S
PHILLIPS       CLOUDY     6   4  92 CALM      30.00S
TOMAHAWK       CLEAR      8   6  90 CALM      30.01S
MEDFORD        CLEAR      7   4  89 SW6       30.02F WCI  -3
MERRILL        CLEAR      9   7  91 W5        30.02S WCI   1
$$

WIZ029-030-035-036-043>047-281000-
CENTRAL WISCONSIN

CITY           SKY/WX    TMP DP  RH WIND       PRES   REMARKS
WAUSAU         CLEAR     11   7  84 W8        30.03S WCI  -1
MOSINEE        CLEAR     10  10 100 W6        30.06S WCI   1
MARSHFIELD     CLEAR     10   6  84 W7        30.05S WCI  -1
STEVENS POINT  CLEAR     14  10  82 W9        30.07F WCI   2
WAUPACA        CLEAR     21  16  79 SW10      30.08S WCI  10
WAUTOMA        CLEAR     19  14  81 W8        30.10S WCI   9
WISC RAPIDS    CLEAR     15   9  76 W5        30.10R WCI   8
CAMP DOUGLAS   CLEAR     13  11  91 W6        30.10S WCI   4
$$

WIZ011>013-019>022-031-037>040-048>050-281000-
NORTHEAST WISCONSIN

CITY           SKY/WX    TMP DP  RH WIND       PRES   REMARKS
ANTIGO         CLEAR      7   5  93 W7        30.00F WCI  -5
SHAWANO        CLEAR     20  16  82 W7        30.06F WCI  11
OCONTO         PTCLDY    20  17  85 W7        30.06S WCI  11
STURGEON BAY   PTCLDY    21  16  79 W7        30.05F WCI  13
GREEN BAY      CLEAR     23  19  85 W9        30.07R WCI  13
MANITOWOC      CLEAR     24  21  88 W13       30.08R WCI  12
APPLETON       CLEAR     21  18  86 W10       30.07S WCI  10
CLINTONVILLE   CLEAR     19  14  79 W5        30.07S WCI  13
OSHKOSH        CLEAR     22  16  78 W7        30.09R WCI  13
$$

WIZ032>034-041-042-053>061-281000-
SOUTHWEST WISCONSIN

CITY           SKY/WX    TMP DP  RH WIND       PRES   REMARKS
LA CROSSE      PTCLDY    15   9  76 S6        30.15R WCI   6
SPARTA         CLEAR     14  10  85 CALM      30.13S
VIROQUA        CLEAR     15  13  94 W7        30.10S WCI   5
BOSCOBEL       CLEAR     17  11  77 CALM      30.16S
PRAIRIE DU CHI CLEAR     18  12  77 W5        30.17S WCI  11
PLATTEVILLE    CLEAR     17  14  87 CALM      30.15S
$$

WIZ056-057-062-063-064-067-068-281000-
SOUTH CENTRAL WISCONSIN

CITY           SKY/WX    TMP DP  RH WIND       PRES   REMARKS
REEDSBURG      CLEAR     17  11  79 SW3       30.11F
BARABOO/DELLS  CLEAR     18  12  79 W5        30.10F WCI  11
LONE ROCK      CLEAR     22  12  65 W8        30.15S WCI  12
MINERAL POINT  CLEAR     19  14  79 W5        30.11F WCI  13
MADISON        CLEAR     21  15  78 CALM      30.11S
MIDDLETON      CLEAR     21  17  84 W8        30.12F WCI  11
WATERTOWN      CLEAR     22  20  90 W6        30.10F WCI  15
MONROE         CLEAR     19  18  93 W8        30.11F WCI   9
JANESVILLE     CLEAR     23  19  86 W5        30.13S WCI  17
$$

WIZ051-052-058>065-066-070>072-281000-
SOUTHEAST WISCONSIN

CITY           SKY/WX    TMP DP  RH WIND       PRES   REMARKS
MILWAUKEE      PTCLDY    27  18  69 W9        30.09S WCI  18
WAUKESHA       CLEAR     23  19  86 W9        30.10F WCI  13
MILWAUKEE/TIMM CLEAR     27  19  74 W9        30.10F WCI  17
RACINE         CLEAR     27  19  72 W10       30.10F WCI  17
BURLINGTON     CLEAR     23  19  82 W6        30.10F WCI  16
KENOSHA        CLEAR     27  21  78 W10       30.09F WCI  17
FOND DU LAC    CLEAR     22  17  81 SW7       30.10R WCI  13
SHEBOYGAN      CLEAR     24  17  74 W10       30.08R WCI  14
WEST BEND      CLEAR     23  19  86 W6        30.08F WCI  16
JUNEAU         CLEAR     20  18  89 W7        30.11F WCI  12
$$

LSZ147-162-281000-
LAKE SUPERIOR

STATION/POSITION TIME  TEMP    WIND        PRES    WAVE
                       AIR SEA DIR/SP/G            HT/PER
                 (UTC) (F)     (DEG/KT/KT) (MB)    (FT/S)
DEVILS ISLAND    0900   22     280/ 13/ 16 1017.6R
PORT WING        0800   24     280/ 16/ 19 1016.6S
SAXON HARBOR     0800   19     210/  8/ 10 1016.6R
$$

LMZ867-665-643>646-281000-
LAKE MICHIGAN

STATION/POSITION TIME  TEMP    WIND        PRES    WAVE
                       AIR SEA DIR/SP/G            HT/PER
                 (UTC) (F)     (DEG/KT/KT) (MB)    (FT/S)
CHAMBERS ISLAND  0800   24     240/ 11/ 15 1017.3R
NORTHPORT PIER   0901   24     280/  7/ 17 1016.9R
SISTER BAY       0828          290/ 18/ 21   N/A
ALGOMA LAKESHORE 0845          320/  9/ 17   N/A
KEWAUNEE LAKESHO 0812   24     290/  8/ 15 1016.8R
SHEBOYGAN LAKESH 0900   25 37  270/  9/ 13 1019.7R
PORT WASHINGTON  0800   27     280/  5/ 12 1019.6
MILWAUKEE LAKESH 0900   27     290/  9/ 11   N/A
KENOSHA   LAKESH 0900   28     290/  7/  8 1019.0F
$$

TC  - TEMPERATURE IN CELSIUS
VSB - VISIBILITY IN STATUTE MILES
WCI - WIND CHILL INDEX
HX  - HEAT INDEX



USA.gov is the U.S. government's official web portal to all federal, state and local government web resources and services.